Retour au catalogue

DMSP 5D-2 F13 DEB

ActifSSO
NORAD 40498·DEBRIS·🇺🇸 United States

Lancé Mar 24, 1995 depuis Vandenberg Space Force Base

Loading…

Prochains Passages (prochaines 24 heures)

TLE

VieillissantSource: Space-Track

Époque: Sep 10, 2026, 08:58 UTC

1 40498U 95015CM  26253.37366921  .00002548  00000-0  95344-3 0  9997
2 40498  98.8789 289.5691 0026214   8.2172 351.9435 14.32495688594425

Suivez DMSP 5D-2 F13 DEB en temps réel avec AllMySat

Download on the App Store